Regional Weather Roundup
Issued by NWS

Home | Current Version | Previous Version | Graphics & Text | Print | Product List | Glossary On
Versions: 1 2 3 4 5 6 7 8 9 10 11 12 13 14 15 16 17 18 19 20 21 22 23 24 25 26 27 28 29 30 31 32 33 34 35 36 37 38 39 40 41 42 43 44 45 46 47 48 49 50
000
ASUS43 KMPX 021910
RWRMN
WEATHER ROUNDUP FOR MINNESOTA
NATIONAL WEATHER SERVICE TWIN CITIES/CHANHASSEN MN
200 PM CDT TUE SEP 02 2014


NOTE: "FAIR" INDICATES FEW OR NO CLOUDS BELOW 12,000 FEET WITH NO
SIGNIFICANT WEATHER AND/OR OBSTRUCTIONS TO VISIBILITY. N/A MEANS
CURRENT SKY AND/OR WEATHER CONDITIONS ARE NOT AVAILABLE.

MNZ060>063-068>070-022000-
   Twin Cities Metro

CITY           SKY/WX    TMP DP  RH WIND       PRES   REMARKS
TWIN CITIES    MOSUNNY   77  51  40 SW12G20   29.89F
ST PAUL        SUNNY     76  49  38 W10       29.89S
CRYSTAL        SUNNY     77  51  40 W7        29.88S
BLAINE         MOSUNNY   77  52  41 SW7       29.89S
LAKEVILLE      SUNNY     73  55  53 W8        29.90F
EDEN PRAIRIE   SUNNY     77  50  38 W10       29.89S
SOUTH ST PAUL  MOSUNNY   77  52  41 W7        29.89S
LAKE ELMO      FAIR      77  50  38 NW9       29.90S
$$
MNZ001>005-007-008-013>017-022>024-027-028-022000-
   Northwest Minnesota

CITY           SKY/WX    TMP DP  RH WIND       PRES   REMARKS
BEMIDJI        MOSUNNY   72  52  48 W10G20    29.80S
HALLOCK        SUNNY     73  52  46 S14       29.70F
ROSEAU         MOSUNNY   72  54  53 S7        29.74F
WARROAD        PTSUNNY   70  54  56 SW7       29.76F
THIEF RVR FALL MOSUNNY   70  52  52 S9        29.76S
CROOKSTON      MOSUNNY   70  55  60 S15       29.76F
FOSSTON        PTSUNNY   72  55  56 S8        29.80F
DETROIT LAKES  MOSUNNY   73  54  49 SW13G18   29.84S
MOORHEAD       MOSUNNY   75  54  46 SW10      29.81F
PARK RAPIDS    MOSUNNY   75  51  43 SW17      29.84S
MAHNOMEN       MOCLDY    68  54  60 SW12      29.82S
$$
MNZ006-009>011-018-025>026-022000-
   North Central Minnesota

CITY           SKY/WX    TMP DP  RH WIND       PRES   REMARKS
BAUDETTE       CLOUDY    69  50  50 VRB6      29.76S
FLAG ISLAND    MOSUNNY   68  52  56 SW7       29.73S
INTL FALLS     SUNNY     71  49  45 W10       29.76S
WASKISH        PTSUNNY   68  57  68 SW5       29.80R
BIG FORK       MOSUNNY   72  46  40 W6        29.79S
LONGVILLE      MOSUNNY   73  54  49 SW7G17    29.82F
GRAND RAPIDS   MOSUNNY   73  48  40 SW12      29.82S
CRANE LAKE     MOSUNNY   70  45  40 W6G16     29.78S
ORR            MOSUNNY   73  41  31 W9G17     29.75S
COOK           MOSUNNY   73  48  40 W16       29.79R
WALKER         FAIR      72  51  47 W15G21    29.81S
$$
MNZ012-019>021-037-022000-
   Northeast Minnesota

CITY           SKY/WX    TMP DP  RH WIND       PRES   REMARKS
DULUTH         MOSUNNY   73  49  42 W15G24    29.82S
ELY            MOSUNNY   70  48  46 W13G20    29.78S
HIBBING        MOSUNNY   75  48  38 W12G18    29.80S
EVELETH        SUNNY     72  46  40 W17       29.81S
DULUTH HARBOR  MOSUNNY   75  54  46 SW14G22   29.81S
TWO HARBORS    MOSUNNY   73  52  46 W12G24    29.79S
SILVER BAY     SUNNY     72  54  53 SW8       29.77F
GRAND MARAIS     N/A     65  60  84 W3        29.77S
G MARAIS ARPRT PTSUNNY   66  46  48 SW9       29.80S
$$
MNZ029>031-032-039>041-046>048-054>057-064-022000-
   West Central Minnesota

CITY           SKY/WX    TMP DP  RH WIND       PRES   REMARKS
FERGUS FALLS   SUNNY     75  48  38 SW13G20   29.83F
WHEATON        SUNNY     73  54  49 SW10      29.86F
MORRIS         SUNNY     79  55  44 SW13      29.86F
ALEXANDRIA     SUNNY     74  54  49 S14G21    29.88F
ELBOW LAKE     FAIR      74  56  51 SW15      29.86S
WADENA         SUNNY     73  52  46 W12G18    29.85S
GLENWOOD       SUNNY     75  54  46 S14G20    29.89F
APPLETON       SUNNY     79  54  41 SW8       29.87F
BENSON         SUNNY     77  55  47 SW12G17   29.88F
ORTONVILLE     SUNNY     77  54  44 W8        29.87F
MADISON        SUNNY     79  57  47 SW12      29.89S
WILLMAR        FAIR      75  55  50 SW9       29.91F
$$
MNZ033>034-036-042>043-049>051-058-059-022000-
   Central Minnesota

CITY           SKY/WX    TMP DP  RH WIND       PRES   REMARKS
ST CLOUD       MOSUNNY   78  51  38 SW12      29.88S
SAUK CENTRE    FAIR      73  52  46 SW10      29.89S
PAYNESVILLE    HVY RAIN  72  50  46 S12G17    29.90F
AITKIN         SUNNY     77  52  41 SW13G18   29.83S
PINE RIVER     MOSUNNY   73  54  49 W10G21    29.87S
BRAINERD       SUNNY     73  50  44 W14       29.85S
STAPLES        SUNNY     73  48  40 SW12      29.86R
LONG PRAIRIE   FAIR      73  50  43 S13       29.88F
LITTLE FALLS   SUNNY     73  46  38 SW7       29.87S
LITCHFIELD     MOSUNNY   75  54  46 W7        29.91S
BUFFALO        SUNNY     75  49  39 SW7       29.90F
MAPLE LAKE     MOSUNNY   75  56  50 W7        29.90S
$$
MNZ037-044-045-052-053-022000-
   East Central Minnesota

CITY           SKY/WX    TMP DP  RH WIND       PRES   REMARKS
PRINCETON      MOSUNNY   77  52  41 SW9       29.88S
MORA           MOSUNNY   73  48  40 SW9       29.89S
CAMBRIDGE      SUNNY     77  55  47 S9        29.87S
RUSH CITY      MOSUNNY   74  52  45 SW7       29.88S
MOOSE LAKE     MOSUNNY   73  50  43 SW13      29.83S
HINCKLEY       FAIR      73  54  49 SW9       29.86S
CLOQUET        MOSUNNY   73  45  35 SW13      29.84S
MCGREGOR       MOSUNNY   73  52  46 SW10G18   29.85S
$$
MNZ071>073-080-081-089-090-097-098-022000-
   Southwest Minnesota

CITY           SKY/WX    TMP DP  RH WIND       PRES   REMARKS
MONTEVIDEO     SUNNY     79  57  47 W8        29.90S
GRANITE FALLS  SUNNY     76  57  50 S10       29.91F
CANBY          SUNNY     76  52  42 SW10      29.91S
MARSHALL       MOSUNNY   77  52  41 W8G23     29.90F
REDWOOD FALLS  SUNNY     78  53  41 SW13G18   29.90F
OLIVIA         SUNNY     75  52  43 SW9       29.90S
PIPESTONE      MOSUNNY   73  55  53 SW12      29.95F
WINDOM         MOSUNNY   75  59  57 SW9       29.94S
WORTHINGTON    MOSUNNY   73  57  56 SW10      29.96F
JACKSON        SUNNY     73  54  49 W12       29.96R
TRACY          PTSUNNY   76  56  49 SW7       29.92F
SLAYTON        MOSUNNY   74  55  52 W12       29.95F HAZE
$$
MNZ065>067-074>077-082>085-091>093-022000-
   South Central Minnesota

CITY           SKY/WX    TMP DP  RH WIND       PRES   REMARKS
MANKATO        MOSUNNY   75  55  50 SW14      29.92S
NEW ULM        SUNNY     75  57  53 W8        29.91S
ST JAMES       MOSUNNY   77  57  50 SW8       29.93F
FAIRMONT       SUNNY     75  55  50 W8        29.94S
GLENCOE        SUNNY     75  51  41 W7        29.91S
FARIBAULT      MOSUNNY   79  54  41 SW9       29.92S
OWATONNA       SUNNY     73  57  56 W12G17    29.93S
WASECA         SUNNY     72  54  53 SW7       29.94S
ALBERT LEA     SUNNY     75  57  53 W7        29.94R
$$
MNZ078>079-086>088-094>096-022000-
   Southeast Minnesota

CITY           SKY/WX    TMP DP  RH WIND       PRES   REMARKS
ROCHESTER      MOSUNNY   75  59  57 W10G20    29.93F
RED WING       SUNNY     79  52  38 W12       29.88S
STANTON        MOSUNNY   76  55  47 W10       29.90S
DODGE CENTER   MOSUNNY   73  57  56 W9        29.93S
WINONA         PTSUNNY   77  59  53 NW9       29.90S
AUSTIN         SUNNY     75  55  50 W12G18    29.93S
PRESTON        MOSUNNY   74  62  66 W3        29.94S
$$
ABBREVIATIONS USED IN REMARKS
   TC - TEMPERATURES IN CELSIUS
  WCI - WIND CHILL INDEX
   HX - HEAT INDEX
  VSB - VISIBILITY
$$


USA.gov is the U.S. government's official web portal to all federal, state and local government web resources and services.